Weather in Comodoro Rivadavia

Argentina     45°50′23″S   67°29′14″W
temp.,
°C
wind,
m/s
gust,
m/s
humid.,
%
clouds,
%
prec.,
mm/h
press.,
hPa
HPBL,
m
4 march, thu
thu400:00+14ese1190100 0.1 1020222
03:00+14e2293100 0.5 1021187
06:00+13e3494100 0.4 1021230
09:00+13e3490100 0.7 1022276
12:00+15e3276100 0.1 1022499
15:00+16e546785 0.1 1021655
18:00+16ene776416 0.0 1019567
21:00+14ne57758 0.0 1017371
5 march, fri
fri500:00+14nne46739 0.0 1016298
03:00+15n511684 0.0 1013308
06:00+14n58760 0.0 1011207
09:00+17nnw47660 0.0 1009338
12:00+24n243788 0.0 1008753
15:00+28e242345 0.0 10051532
18:00+24ese444599 0.0 1002224
21:00+23ssw114783 0.0 100125
6 march, sat
sat600:00+24w3425100 0.0 100030
03:00+22wnw691982 0.0 999120
06:00+21nw8182039 0.0 1000326
09:00+22wnw14212769 0.0 1000778
12:00+26wnw121830100 0.0 10002068
15:00+28wnw15192784 0.0 9982199
18:00+27wnw13203168 0.0 9992259
21:00+24wnw11193869 0.0 10001138
7 march, sun
sun700:00+22w71442100 0.0 10021082
03:00+20wnw6144783 0.0 1001717
06:00+19w614490 0.0 1002611
09:00+19w816440 0.0 10021614
12:00+20w14192791 0.0 10031945
15:00+22w17212063 0.0 10042081
18:00+22w1416210 0.0 10062407
21:00+18w1215310 0.0 10091158
8 march, mon
mon800:00+16w13173715 0.0 1012764
03:00+15w8174318 0.0 1012538
06:00+13w26492 0.0 1013224
09:00+14w611441 0.0 1013705
12:00+19w67340 0.0 1013980
15:00+22wnw56250 0.0 10111787
18:00+23wnw792267 0.0 10081762
21:00+21n122664 0.0 1007100